User: anonymous   Login
Location: Mentone
(34.5413°N, 85.5351°W)
Time: 01:14:53
(UTC-06:00)
Language:

Centaur AC-72 - Orbit

View from above orbital plane
View from above orbital plane
View from above satellite
View from above satellite

Ground track
Ground track

The orbit data is extracted from the following two-line orbital elements,

1 21907U 92013B   14325.72935743  .00000003  00000-0  00000+0 0  9586
2 21907 019.0842 209.7598 6937492 324.9119 301.9674 02.25606511187097
Epoch (UTC): 21 November 2014 17:30:16
Eccentricity: 0.6937492
inclination: 19.0842°
perigee height: 1142 km
apogee height: 35214 km
right ascension of ascending node: 209.7598°
argument of perigee: 324.9119°
revolutions per day: 2.25606511
mean anomaly at epoch: 301.9674°
orbit number at epoch: 18709

The dashed part of the orbit path shows where the satellite is in the earth's shadow,  

DLR